Location: Newark
(44.3789°N, 0.6828°W)
Time: 11:35:57
(UTC+00:00)

Starlink (trailer) - Visible Passes

Search period start: 22 July 2019 00:00
Search period end: 01 August 2019 00:00
Orbit: 548 x 551 km, 53.0° (Epoch: 21 July)

Date Brightness Start Highest point End Pass type
(mag) Time Alt. Az. Time Alt. Az. Time Alt. Az.
22 Jul 4.7 00:38:59 36° ENE 00:38:59 36° ENE 00:41:36 10° ENE visible
22 Jul 5.0 02:14:37 17° W 02:17:17 36° NNW 02:21:09 10° NE visible
22 Jul 5.8 03:54:16 10° NW 03:57:43 24° N 04:01:08 10° ENE visible
23 Jul 4.5 00:33:22 43° ENE 00:33:22 43° ENE 00:36:14 10° ENE visible
23 Jul 5.2 02:09:00 14° WNW 02:11:59 32° NNW 02:15:44 10° NE visible
23 Jul 5.8 03:49:00 10° NW 03:52:28 25° N 03:55:55 10° ENE visible
24 Jul 4.3 00:27:41 50° NE 00:27:41 50° NE 00:30:50 10° NE visible
24 Jul 5.5 02:03:18 11° WNW 02:06:42 29° NNW 02:10:21 10° NE visible
24 Jul 5.8 03:43:41 10° NW 03:47:12 26° N 03:50:43 10° ENE visible
25 Jul 4.2 00:21:56 55° NNE 00:21:56 55° NNE 00:25:25 10° NE visible
25 Jul 5.6 01:57:53 10° WNW 02:01:26 26° N 02:04:59 10° NE visible
25 Jul 5.7 03:38:20 10° NW 03:41:57 28° NNE 03:45:33 10° ENE visible
26 Jul 4.3 00:16:04 52° NNW 00:16:04 52° NNW 00:19:58 10° NE visible
26 Jul 5.8 01:52:41 10° WNW 01:56:11 25° N 01:59:39 10° NE visible
26 Jul 5.6 03:32:57 10° NW 03:36:40 30° NNE 03:40:22 10° ENE visible
26 Jul 6.0 22:34:28 13° ENE 22:34:28 13° ENE 22:34:54 10° ENE visible
27 Jul 4.7 00:10:03 41° NW 00:10:34 43° NNW 00:14:33 10° NE visible
27 Jul 5.9 01:47:28 10° WNW 01:50:55 24° N 01:54:22 10° NE visible
27 Jul 5.4 03:27:33 10° NW 03:31:22 34° NNE 03:35:10 10° E visible
27 Jul 5.4 22:28:09 20° ENE 22:28:09 20° ENE 22:29:35 10° ENE visible
28 Jul 5.0 00:03:42 27° WNW 00:05:15 37° NNW 00:09:07 10° NE visible
28 Jul 5.9 01:42:13 10° NW 01:45:39 24° N 01:49:06 10° ENE visible
28 Jul 5.1 03:22:08 10° NW 03:26:03 39° NNE 03:29:58 10° E visible
28 Jul 3.9 22:20:55 53° ENE 22:20:55 53° ENE 22:24:12 10° ENE visible
28 Jul 5.3 23:56:21 11° W 23:59:57 32° NNW 00:03:42 10° NE visible
29 Jul 5.9 01:36:57 10° NW 01:40:24 25° N 01:43:52 10° ENE visible
29 Jul 4.7 03:16:42 10° NW 03:20:43 47° NNE 03:24:44 10° E visible
29 Jul 5.0 20:32:45 10° S 20:35:31 17° SE 20:38:16 10° E visible
29 Jul 3.6 22:10:28 10° WSW 22:14:37 84° NW 22:18:48 10° NE visible
29 Jul 5.6 23:50:59 10° WNW 23:54:39 29° NNW 23:58:19 10° NE visible
30 Jul 5.8 01:31:38 10° NW 01:35:08 26° N 01:38:39 10° ENE visible
30 Jul 4.3 03:11:16 10° NW 03:15:22 57° NNE 03:19:27 10° ESE visible
30 Jul 4.7 20:26:39 10° S 20:29:57 23° SE 20:33:15 10° E visible
30 Jul 3.9 22:05:05 10° WSW 22:09:13 67° NNW 22:13:22 10° NE visible
30 Jul 5.7 23:45:48 10° WNW 23:49:22 27° N 23:52:56 10° NE visible
31 Jul 5.7 01:26:17 10° NW 01:29:52 27° N 01:33:28 10° ENE visible
31 Jul 3.9 03:05:50 10° NW 03:09:59 72° NNE 03:14:07 10° ESE visible
31 Jul 4.4 20:20:46 10° SSW 20:24:25 31° SE 20:28:05 10° ENE visible
31 Jul 4.3 21:59:46 10° WSW 22:03:51 54° NNW 22:07:56 10° NE visible
31 Jul 5.8 23:40:36 10° WNW 23:44:06 25° N 23:47:36 10° NE visible
